Location: De Har
(53.3413°N, 6.6858°E)
Time: 08:44:10
(UTC+00:00)

Cosmos 2322 Rocket - Pass Details

Date: 22 April 2026
Orbit: 832 x 849 km, 71.0° (Epoch: 15 May)

Event Time Altitude Azimuth Distance (km) Brightness Sun altitude
Rises 00:58:07 0° 328° (NNW) 3,396 5.8 -22.0°
Reaches altitude 10° 01:00:37 10° 332° (NNW) 2,460 5.1 -21.8°
Maximum altitude 01:06:11 58° 52° (NE) 976 2.7 -21.5°
Drops below altitude 10° 01:11:44 10° 132° (SE) 2,458 4.5 -21.1°
Sets 01:14:14 0° 136° (SE) 3,392 5.2 -21.0°
